Flag Weather past 2 weeks in Bremerhaven, Bremen, Germany

Now
48 °F

Partly sunny.


Feels Like: 44 °F
Forecast: 44 / 51 °F
Wind: 9 mph from Southeast

Location: Nordholz

Current Time: Nov 23, 2014 at 1:32:47 PM

Latest Report: Nov 23, 2014 at 12:20 PM


Visibility: 4 mi

Pressure: 30.07 "Hg

Humidity: 87%

Dew point: 45 °F

Location of BremerhavenLocation

Historic Weather in Bremerhaven — Graph

°F

Bremerhaven temperature yesterday

Maximum temperature yesterday: 43 °F (at 3:20 PM)
Minimum temperature yesterday: 34 °F (at 12:20 AM)
Average temperature yesterday: 39 °F

Past Weeks' High & Low Weather Summary

 TemperatureHumidityPressure
High54 °F (Nov 8, 1:20 PM)100% (Nov 10, 6:20 AM)30.39 "Hg (Nov 10, 6:20 AM)
Low28 °F (Nov 21, 5:20 AM)67% (Nov 9, 1:20 PM)29.53 "Hg (Nov 16, 2:50 PM)
Average45 °F91%29.92 "Hg
* Reported Nov 8 12:20 PM — Nov 23 12:20 PM, Bremerhaven, Weather by CustomWeather, © 2014

Note: Actual official high and low records may vary slightly from our data, if they occured in-between our weather recording intervals... More about our weather records

Advertising

Bremerhaven weather history for previous 24 hours

 ConditionsComfort  
Time TempWeatherWind HumidityBarometerVisibility
12:20 PM
Nov 23
48 °FPartly sunny.9 mph87%30.07 "Hg4 mi
11:20 AM46 °FFog.9 mph87%30.09 "Hg3 mi
10:20 AM45 °FFog.9 mph93%30.09 "Hg3 mi
9:20 AM43 °FFog.8 mph93%30.09 "Hg2 mi
8:20 AM43 °FFog.10 mph93%30.09 "Hg2 mi
7:55 AM43 °FFog.8 mph93%30.09 "Hg2 mi
7:20 AM43 °FPassing clouds.9 mph93%30.09 "Hg4 mi
6:20 AM41 °FPassing clouds.6 mph100%30.09 "Hg4 mi
5:20 AM41 °FPassing clouds.9 mph93%30.09 "Hg4 mi
4:20 AM41 °FPassing clouds.8 mph93%30.09 "Hg4 mi
3:20 AM41 °FPassing clouds.6 mph93%30.09 "Hg6 mi
2:20 AM41 °FPassing clouds.6 mph93%30.09 "Hg6 mi
1:20 AM41 °FPassing clouds.7 mph93%30.09 "Hg5 mi
12:20 AM41 °FPassing clouds.9 mph93%30.09 "Hg4 mi
11:20 PM
Nov 22
41 °FFog.10 mph93%30.09 "Hg3 mi
10:20 PM41 °FPassing clouds.8 mph93%30.09 "Hg4 mi
9:20 PM41 °FPassing clouds.10 mph93%30.09 "Hg5 mi
8:20 PM41 °FPassing clouds.10 mph93%30.09 "Hg5 mi
7:20 PM41 °FPassing clouds.9 mph93%30.09 "Hg5 mi
6:20 PM41 °FPassing clouds.8 mph93%30.12 "Hg5 mi
5:20 PM41 °FPassing clouds.9 mph93%30.09 "Hg5 mi
4:20 PM41 °FFog.10 mph93%30.09 "Hg3 mi
3:20 PM43 °FPartly sunny.8 mph87%30.12 "Hg4 mi
2:20 PM41 °FFog.10 mph93%30.09 "Hg3 mi
1:20 PM41 °FBroken clouds.9 mph93%30.12 "Hg4 mi
Weather by CustomWeather, © 2014

See weather overviewHow to use our weather pages